NORTHEAST SUFFOLK  -  Frost Advisory Frost Advisory        NORTHWEST SUFFOLK  -  Frost Advisory Frost Advisory        SOUTHEAST SUFFOLK  -  Frost Advisory Frost Advisory        SOUTHWEST SUFFOLK  -  Frost Advisory Frost Advisory      

Active alerts

Northwest Suffolk
  Details for Northwest Suffolk Frost Advisory
Southwest Suffolk
  Details for Southwest Suffolk Frost Advisory
Northeast Suffolk
  Details for Northeast Suffolk Frost Advisory
Southeast Suffolk
  Details for Southeast Suffolk Frost Advisory


WXM80 ListenWXM80 Stop

You find our weather info also at:

UK Metoffice

WeatherCloud

Weather Underground

Northeastern Weather Network

AWEKAS

Citizen Weather Observer Program (CWOP)

HAMweather, WeatherForYou, PWS Weather


Weather Underground History page Text

Daily Summary for January 11, 2016 Units:  English    Metric   Both
« Previous Day
Next Day »
Daily Weekly Monthly Yearly Custom
  High: Low: Average:
Temperature: 41.3 °F 27.3 °F 34 °F
Dew Point: 32.6 °F 11.6 °F 18.2 °F
Humidity: 71 % 41 % 52 %
Wind Speed: 13.6 mph 0.2 mph 6.6 mph
Wind Gust: 25.0 mph - -
Wind:- - West
Pressure: 30.10 in 29.55 in -
Precipitation: 0.00 in    
Historical Graphs
 
 
Tabular Data for January 11, 2016
Time Temperature Dew Point Pressure Wind Wind Speed Wind Gust Humidity Rainfall Rate (Hourly)
00:02 41.3 °F 32.6 °F 29.55 in SW 6.9 mph 16.1 mph 71 % 0.00 in
00:07 41.2 °F 32.5 °F 29.55 in NW 11.3 mph 19.6 mph 71 % 0.00 in
00:12 41.2 °F 32.2 °F 29.55 in WSW 10.4 mph 17.3 mph 70 % 0.00 in
00:17 41.1 °F 32.1 °F 29.56 in WSW 8.9 mph 17.3 mph 70 % 0.00 in
00:22 41.2 °F 32.2 °F 29.55 in WSW 6.5 mph 16.1 mph 70 % 0.00 in
00:28 41.2 °F 32.2 °F 29.55 in WSW 10.1 mph 14.0 mph 70 % 0.00 in
00:33 41.3 °F 31.5 °F 29.56 in NW 9.0 mph 19.6 mph 68 % 0.00 in
00:38 41.3 °F 31.5 °F 29.56 in WNW 9.5 mph 18.4 mph 68 % 0.00 in
00:43 41.3 °F 31.5 °F 29.56 in WSW 8.9 mph 15.0 mph 68 % 0.00 in
00:48 41.3 °F 31.2 °F 29.56 in WSW 10.3 mph 17.3 mph 67 % 0.00 in
00:53 41.3 °F 31.2 °F 29.56 in WSW 7.9 mph 15.0 mph 67 % 0.00 in
00:58 41.3 °F 31.5 °F 29.57 in SW 6.3 mph 9.2 mph 68 % 0.00 in
01:03 41.3 °F 31.2 °F 29.57 in NW 7.1 mph 12.7 mph 67 % 0.00 in
01:08 41.3 °F 31.2 °F 29.57 in SSW 4.7 mph 9.2 mph 67 % 0.00 in
01:13 41.2 °F 31.4 °F 29.57 in SW 10.8 mph 14.0 mph 68 % 0.00 in
01:19 41.2 °F 30.7 °F 29.58 in West 9.8 mph 16.0 mph 66 % 0.00 in
01:24 41.1 °F 29.8 °F 29.58 in WSW 10.7 mph 15.0 mph 64 % 0.00 in
01:29 41.0 °F 30.1 °F 29.58 in West 10.6 mph 17.3 mph 65 % 0.00 in
01:34 40.9 °F 29.7 °F 29.58 in WSW 9.0 mph 17.3 mph 64 % 0.00 in
01:39 40.8 °F 29.6 °F 29.59 in SW 7.1 mph 13.0 mph 64 % 0.00 in
01:44 40.8 °F 30.3 °F 29.59 in WSW 6.9 mph 12.7 mph 66 % 0.00 in
01:49 40.7 °F 29.8 °F 29.59 in SW 7.1 mph 10.0 mph 65 % 0.00 in
01:54 40.6 °F 29.7 °F 29.60 in WSW 8.7 mph 11.5 mph 65 % 0.00 in
01:59 40.4 °F 29.2 °F 29.60 in WSW 7.0 mph 17.0 mph 64 % 0.00 in
02:04 40.3 °F 29.1 °F 29.61 in West 5.8 mph 12.7 mph 64 % 0.00 in
02:10 40.2 °F 28.6 °F 29.61 in WSW 10.0 mph 19.6 mph 63 % 0.00 in
02:15 40.1 °F 28.1 °F 29.61 in West 9.3 mph 16.1 mph 62 % 0.00 in
02:20 40.1 °F 28.5 °F 29.62 in WSW 9.2 mph 15.0 mph 63 % 0.00 in
02:25 40.1 °F 28.5 °F 29.62 in SW 6.8 mph 16.0 mph 63 % 0.00 in
02:30 40.0 °F 27.6 °F 29.62 in West 11.7 mph 21.9 mph 61 % 0.00 in
02:35 39.9 °F 27.1 °F 29.62 in WSW 9.1 mph 11.5 mph 60 % 0.00 in
02:40 39.8 °F 27.4 °F 29.63 in WNW 10.7 mph 12.7 mph 61 % 0.00 in
02:45 39.7 °F 26.9 °F 29.63 in West 7.6 mph 13.8 mph 60 % 0.00 in
02:55 39.3 °F 26.6 °F 29.64 in SW 7.6 mph 15.0 mph 60 % 0.00 in
03:01 39.1 °F 26.8 °F 29.64 in WSW 10.3 mph 12.7 mph 61 % 0.00 in
03:06 39.0 °F 25.9 °F 29.64 in WSW 12.2 mph 19.6 mph 59 % 0.00 in
03:11 38.9 °F 26.2 °F 29.65 in West 7.9 mph 11.5 mph 60 % 0.00 in
03:16 38.7 °F 25.6 °F 29.65 in WSW 7.1 mph 16.1 mph 59 % 0.00 in
03:21 38.6 °F 25.5 °F 29.65 in SW 10.7 mph 18.4 mph 59 % 0.00 in
03:26 38.4 °F 24.1 °F 29.66 in WNW 7.7 mph 16.1 mph 56 % 0.00 in
03:31 38.3 °F 24.0 °F 29.66 in WNW 10.1 mph 17.3 mph 56 % 0.00 in
03:36 38.2 °F 23.9 °F 29.66 in NW 10.0 mph 19.6 mph 56 % 0.00 in
03:41 38.1 °F 24.2 °F 29.67 in West 6.8 mph 16.1 mph 57 % 0.00 in
03:46 38.0 °F 24.9 °F 29.67 in NW 7.4 mph 13.0 mph 59 % 0.00 in
03:52 37.9 °F 24.0 °F 29.67 in WSW 4.9 mph 17.3 mph 57 % 0.00 in
03:57 37.9 °F 25.2 °F 29.68 in West 7.6 mph 13.8 mph 60 % 0.00 in
04:02 37.9 °F 26.0 °F 29.68 in WNW 8.7 mph 12.7 mph 62 % 0.00 in
04:12 37.5 °F 26.8 °F 29.69 in West 6.9 mph 10.4 mph 65 % 0.00 in
04:17 37.4 °F 27.1 °F 29.69 in WSW 7.1 mph 15.0 mph 66 % 0.00 in
04:22 37.3 °F 27.0 °F 29.69 in West 10.5 mph 15.0 mph 66 % 0.00 in
04:27 37.1 °F 26.8 °F 29.69 in WSW 6.9 mph 11.5 mph 66 % 0.00 in
04:32 36.9 °F 24.7 °F 29.70 in SW 9.9 mph 24.2 mph 61 % 0.00 in
04:37 36.6 °F 22.8 °F 29.70 in WSW 12.8 mph 12.8 mph 57 % 0.00 in
04:53 35.9 °F 19.5 °F 29.71 in WNW 12.0 mph 18.4 mph 51 % 0.00 in
04:58 35.7 °F 19.3 °F 29.72 in WSW 8.4 mph 16.0 mph 51 % 0.00 in
05:03 35.5 °F 19.1 °F 29.73 in WSW 5.7 mph 15.0 mph 51 % 0.00 in
05:08 35.4 °F 18.6 °F 29.73 in NW 12.8 mph 18.4 mph 50 % 0.00 in
05:13 35.2 °F 19.3 °F 29.73 in West 4.8 mph 11.5 mph 52 % 0.00 in
05:18 35.1 °F 17.8 °F 29.74 in SW 9.4 mph 17.3 mph 49 % 0.00 in
05:23 34.9 °F 18.6 °F 29.74 in WSW 10.5 mph 25.0 mph 51 % 0.00 in
05:28 34.8 °F 18.5 °F 29.75 in WSW 7.9 mph 21.0 mph 51 % 0.00 in
05:34 34.6 °F 18.3 °F 29.74 in NW 10.3 mph 17.3 mph 51 % 0.00 in
05:39 34.6 °F 18.8 °F 29.75 in WNW 13.6 mph 19.6 mph 52 % 0.00 in
05:44 34.4 °F 19.0 °F 29.76 in West 10.3 mph 17.3 mph 53 % 0.00 in
05:49 34.3 °F 18.5 °F 29.76 in NW 13.3 mph 20.0 mph 52 % 0.00 in
05:54 34.3 °F 18.5 °F 29.76 in NW 11.6 mph 18.4 mph 52 % 0.00 in
05:59 34.1 °F 18.3 °F 29.77 in West 10.5 mph 19.6 mph 52 % 0.00 in
06:04 34.1 °F 19.2 °F 29.77 in WNW 7.6 mph 15.0 mph 54 % 0.00 in
06:09 33.9 °F 18.6 °F 29.78 in WNW 9.3 mph 16.1 mph 53 % 0.00 in
06:20 33.7 °F 18.8 °F 29.78 in NW 9.2 mph 9.2 mph 54 % 0.00 in
06:25 33.6 °F 18.7 °F 29.78 in North 5.1 mph 15.0 mph 54 % 0.00 in
06:30 33.5 °F 18.2 °F 29.78 in NW 8.8 mph 15.0 mph 53 % 0.00 in
06:35 33.4 °F 17.6 °F 29.78 in NW 7.7 mph 23.0 mph 52 % 0.00 in
06:40 33.4 °F 17.6 °F 29.79 in SW 6.1 mph 20.7 mph 52 % 0.00 in
06:45 33.3 °F 18.0 °F 29.79 in WNW 8.5 mph 15.0 mph 53 % 0.00 in
06:50 33.2 °F 17.9 °F 29.79 in West 5.2 mph 14.0 mph 53 % 0.00 in
06:55 33.1 °F 17.8 °F 29.79 in West 8.0 mph 13.8 mph 53 % 0.00 in
07:00 33.0 °F 17.7 °F 29.80 in West 8.0 mph 11.5 mph 53 % 0.00 in
07:05 33.0 °F 18.6 °F 29.80 in WSW 5.7 mph 10.0 mph 55 % 0.00 in
07:11 33.0 °F 18.6 °F 29.80 in NW 4.6 mph 6.9 mph 55 % 0.00 in
07:16 32.8 °F 18.0 °F 29.80 in WNW 5.9 mph 11.5 mph 54 % 0.00 in
07:21 32.7 °F 18.3 °F 29.80 in West 2.7 mph 11.5 mph 55 % 0.00 in
07:26 32.6 °F 18.2 °F 29.81 in WNW 5.0 mph 11.5 mph 55 % 0.00 in
07:31 32.6 °F 18.6 °F 29.81 in West 3.0 mph 8.1 mph 56 % 0.00 in
07:36 32.6 °F 18.6 °F 29.81 in WNW 5.6 mph 9.2 mph 56 % 0.00 in
07:41 32.7 °F 19.1 °F 29.81 in WSW 1.6 mph 3.5 mph 57 % 0.00 in
07:46 32.8 °F 19.2 °F 29.81 in NW 6.9 mph 12.7 mph 57 % 0.00 in
07:51 32.9 °F 19.7 °F 29.81 in West 7.4 mph 9.2 mph 58 % 0.00 in
07:56 33.0 °F 19.8 °F 29.82 in West 5.0 mph 7.0 mph 58 % 0.00 in
08:02 33.1 °F 20.3 °F 29.82 in NW 5.8 mph 11.0 mph 59 % 0.00 in
08:07 33.1 °F 20.7 °F 29.82 in SSW 7.0 mph 18.4 mph 60 % 0.00 in
08:12 33.1 °F 20.3 °F 29.83 in NW 5.9 mph 11.5 mph 59 % 0.00 in
08:17 33.2 °F 20.0 °F 29.83 in NW 6.3 mph 11.0 mph 58 % 0.00 in
08:22 33.1 °F 19.9 °F 29.83 in WNW 5.8 mph 11.0 mph 58 % 0.00 in
08:27 33.2 °F 20.0 °F 29.83 in SW 6.2 mph 12.7 mph 58 % 0.00 in
08:32 33.2 °F 20.4 °F 29.84 in WSW 8.1 mph 11.5 mph 59 % 0.00 in
08:37 33.2 °F 20.8 °F 29.84 in WNW 3.3 mph 11.5 mph 60 % 0.00 in
08:42 33.2 °F 20.0 °F 29.84 in West 6.2 mph 17.3 mph 58 % 0.00 in
08:47 33.2 °F 20.4 °F 29.85 in NW 3.8 mph 6.9 mph 59 % 0.00 in
08:53 33.2 °F 20.8 °F 29.85 in SSW 7.0 mph 10.0 mph 60 % 0.00 in
08:58 33.3 °F 19.7 °F 29.85 in West 5.2 mph 12.0 mph 57 % 0.00 in
09:03 33.3 °F 20.1 °F 29.85 in SW 7.4 mph 12.7 mph 58 % 0.00 in
09:08 33.2 °F 20.0 °F 29.86 in WSW 3.7 mph 7.0 mph 58 % 0.00 in
09:13 33.3 °F 20.1 °F 29.86 in SW 6.0 mph 10.4 mph 58 % 0.00 in
09:18 33.3 °F 20.1 °F 29.86 in West 4.2 mph 7.0 mph 58 % 0.00 in
09:23 33.4 °F 20.2 °F 29.87 in West 6.4 mph 9.0 mph 58 % 0.00 in
09:28 33.6 °F 20.0 °F 29.87 in WSW 6.4 mph 8.1 mph 57 % 0.00 in
09:33 33.8 °F 20.6 °F 29.88 in WSW 5.7 mph 12.0 mph 58 % 0.00 in
09:38 34.0 °F 19.5 °F 29.88 in WSW 8.2 mph 13.0 mph 55 % 0.00 in
09:44 34.1 °F 19.6 °F 29.88 in WSW 4.9 mph 15.0 mph 55 % 0.00 in
09:49 34.1 °F 20.4 °F 29.88 in West 6.7 mph 15.0 mph 57 % 0.00 in
09:54 34.2 °F 18.8 °F 29.88 in WSW 9.2 mph 12.7 mph 53 % 0.00 in
09:59 34.2 °F 19.3 °F 29.88 in WNW 3.6 mph 9.2 mph 54 % 0.00 in
10:04 34.3 °F 18.9 °F 29.88 in SW 4.5 mph 10.4 mph 53 % 0.00 in
10:14 34.5 °F 19.1 °F 29.88 in WNW 7.7 mph 12.7 mph 53 % 0.00 in
10:19 34.5 °F 19.1 °F 29.89 in WSW 6.0 mph 17.0 mph 53 % 0.00 in
10:24 34.5 °F 18.2 °F 29.89 in WSW 5.3 mph 13.8 mph 51 % 0.00 in
10:29 34.5 °F 18.7 °F 29.89 in West 4.4 mph 5.8 mph 52 % 0.00 in
10:35 34.5 °F 18.7 °F 29.89 in SSW 6.9 mph 11.5 mph 52 % 0.00 in
10:40 34.4 °F 18.1 °F 29.89 in NW 7.0 mph 13.8 mph 51 % 0.00 in
10:45 34.2 °F 17.9 °F 29.88 in WNW 10.4 mph 13.8 mph 51 % 0.00 in
10:50 34.1 °F 18.3 °F 29.89 in SW 6.6 mph 12.0 mph 52 % 0.00 in
10:55 34.1 °F 18.3 °F 29.89 in SW 7.9 mph 12.7 mph 52 % 0.00 in
11:00 34.2 °F 18.4 °F 29.89 in WSW 4.8 mph 9.2 mph 52 % 0.00 in
11:05 34.2 °F 17.5 °F 29.89 in SW 7.3 mph 15.0 mph 50 % 0.00 in
11:10 34.2 °F 18.4 °F 29.89 in West 4.6 mph 7.0 mph 52 % 0.00 in
11:15 34.1 °F 17.8 °F 29.89 in WSW 5.9 mph 8.0 mph 51 % 0.00 in
11:20 34.1 °F 17.4 °F 29.89 in SSW 5.9 mph 12.7 mph 50 % 0.00 in
11:26 34.0 °F 18.2 °F 29.89 in SSW 7.0 mph 13.0 mph 52 % 0.00 in
11:31 33.9 °F 17.2 °F 29.89 in SW 7.4 mph 11.5 mph 50 % 0.00 in
11:36 33.8 °F 17.1 °F 29.89 in West 10.9 mph 17.3 mph 50 % 0.00 in
11:41 33.8 °F 17.1 °F 29.88 in WNW 9.9 mph 15.0 mph 50 % 0.00 in
11:46 33.9 °F 17.7 °F 29.88 in WNW 5.6 mph 10.4 mph 51 % 0.00 in
11:51 33.9 °F 16.7 °F 29.88 in WNW 5.8 mph 12.7 mph 49 % 0.00 in
11:56 33.9 °F 17.2 °F 29.88 in WSW 7.4 mph 13.8 mph 50 % 0.00 in
12:01 34.0 °F 16.8 °F 29.88 in WSW 7.2 mph 10.0 mph 49 % 0.00 in
12:06 34.1 °F 16.9 °F 29.88 in West 10.6 mph 17.3 mph 49 % 0.00 in
12:11 34.3 °F 16.6 °F 29.87 in SW 11.1 mph 12.7 mph 48 % 0.00 in
12:17 34.4 °F 15.7 °F 29.88 in West 8.3 mph 21.9 mph 46 % 0.00 in
12:22 34.5 °F 16.8 °F 29.88 in SW 6.2 mph 12.0 mph 48 % 0.00 in
12:27 34.7 °F 16.0 °F 29.88 in NW 11.2 mph 17.3 mph 46 % 0.00 in
12:32 34.9 °F 16.7 °F 29.88 in WSW 9.7 mph 15.0 mph 47 % 0.00 in
12:37 35.1 °F 16.9 °F 29.88 in West 9.9 mph 13.8 mph 47 % 0.00 in
12:42 35.3 °F 17.5 °F 29.88 in WSW 6.3 mph 11.5 mph 48 % 0.00 in
12:47 35.5 °F 17.2 °F 29.88 in West 7.7 mph 12.7 mph 47 % 0.00 in
12:52 35.5 °F 17.2 °F 29.88 in WNW 4.5 mph 9.2 mph 47 % 0.00 in
12:57 35.5 °F 17.7 °F 29.88 in West 9.3 mph 11.5 mph 48 % 0.00 in
13:02 35.4 °F 16.6 °F 29.88 in SW 6.7 mph 10.4 mph 46 % 0.00 in
13:08 35.4 °F 16.6 °F 29.88 in SW 10.9 mph 15.0 mph 46 % 0.00 in
13:13 35.3 °F 16.6 °F 29.88 in SW 8.7 mph 18.4 mph 46 % 0.00 in
13:28 35.2 °F 16.0 °F 29.87 in WSW 5.3 mph 19.6 mph 45 % 0.00 in
13:33 35.3 °F 17.1 °F 29.87 in WSW 8.3 mph 15.0 mph 47 % 0.00 in
13:38 35.4 °F 17.1 °F 29.87 in WSW 5.7 mph 8.1 mph 47 % 0.00 in
13:43 35.5 °F 17.2 °F 29.87 in SW 5.8 mph 12.7 mph 47 % 0.00 in
13:48 35.5 °F 16.2 °F 29.87 in WNW 9.0 mph 15.0 mph 45 % 0.00 in
13:53 35.5 °F 15.7 °F 29.87 in WSW 5.2 mph 10.4 mph 44 % 0.00 in
13:59 35.6 °F 16.8 °F 29.88 in WSW 4.8 mph 11.5 mph 46 % 0.00 in
14:04 35.6 °F 15.8 °F 29.88 in SW 5.2 mph 16.1 mph 44 % 0.00 in
14:09 35.6 °F 16.3 °F 29.88 in WSW 7.2 mph 16.1 mph 45 % 0.00 in
14:14 35.5 °F 15.7 °F 29.88 in West 10.1 mph 15.0 mph 44 % 0.00 in
14:19 35.5 °F 16.7 °F 29.88 in WSW 7.6 mph 10.0 mph 46 % 0.00 in
14:24 35.3 °F 15.5 °F 29.88 in WSW 6.6 mph 12.7 mph 44 % 0.00 in
14:34 35.0 °F 14.7 °F 29.88 in WSW 7.6 mph 11.5 mph 43 % 0.00 in
14:39 34.8 °F 14.5 °F 29.88 in WSW 8.4 mph 13.8 mph 43 % 0.00 in
14:44 34.6 °F 14.9 °F 29.89 in WSW 5.8 mph 6.0 mph 44 % 0.00 in
14:50 34.6 °F 14.9 °F 29.89 in West 9.5 mph 17.3 mph 44 % 0.00 in
14:55 34.5 °F 15.3 °F 29.89 in WNW 6.2 mph 15.0 mph 45 % 0.00 in
15:00 34.5 °F 15.8 °F 29.89 in West 6.6 mph 9.2 mph 46 % 0.00 in
15:05 34.5 °F 14.8 °F 29.89 in WNW 4.9 mph 12.7 mph 44 % 0.00 in
15:10 34.4 °F 14.2 °F 29.89 in SW 4.7 mph 13.8 mph 43 % 0.00 in
15:15 34.4 °F 13.6 °F 29.90 in WSW 5.4 mph 13.8 mph 42 % 0.00 in
15:20 34.4 °F 14.2 °F 29.90 in West 5.9 mph 11.5 mph 43 % 0.00 in
15:25 34.4 °F 13.6 °F 29.91 in WNW 8.9 mph 15.0 mph 42 % 0.00 in
15:30 34.3 °F 13.0 °F 29.91 in WSW 8.9 mph 15.0 mph 41 % 0.00 in
15:35 34.2 °F 13.5 °F 29.92 in West 7.5 mph 10.0 mph 42 % 0.00 in
15:41 34.2 °F 13.5 °F 29.92 in WNW 8.8 mph 15.0 mph 42 % 0.00 in
15:46 34.2 °F 14.0 °F 29.92 in WSW 6.6 mph 10.4 mph 43 % 0.00 in
15:51 34.2 °F 14.5 °F 29.93 in SSW 5.3 mph 9.2 mph 44 % 0.00 in
15:56 34.1 °F 14.9 °F 29.93 in WSW 4.9 mph 9.2 mph 45 % 0.00 in
16:01 34.0 °F 14.3 °F 29.93 in West 3.4 mph 8.1 mph 44 % 0.00 in
16:06 33.9 °F 14.3 °F 29.93 in West 7.6 mph 9.2 mph 44 % 0.00 in
16:11 33.7 °F 14.1 °F 29.93 in SW 4.4 mph 7.0 mph 44 % 0.00 in
16:16 33.7 °F 14.1 °F 29.94 in WNW 6.3 mph 10.4 mph 44 % 0.00 in
16:21 33.5 °F 13.4 °F 29.94 in West 6.1 mph 13.8 mph 43 % 0.00 in
16:26 33.4 °F 13.8 °F 29.94 in SW 5.4 mph 12.7 mph 44 % 0.00 in
16:32 33.3 °F 14.2 °F 29.94 in West 7.4 mph 11.5 mph 45 % 0.00 in
16:37 33.1 °F 14.0 °F 29.94 in NW 2.6 mph 6.9 mph 45 % 0.00 in
16:42 33.0 °F 13.9 °F 29.94 in NW 3.2 mph 6.0 mph 45 % 0.00 in
16:47 32.9 °F 13.3 °F 29.95 in WSW 6.8 mph 11.5 mph 44 % 0.00 in
16:52 32.8 °F 12.7 °F 29.95 in WNW 5.2 mph 12.7 mph 43 % 0.00 in
16:57 32.7 °F 13.2 °F 29.95 in NW 3.4 mph 10.4 mph 44 % 0.00 in
17:02 32.6 °F 13.1 °F 29.96 in WNW 6.1 mph 11.5 mph 44 % 0.00 in
17:07 32.5 °F 13.5 °F 29.97 in West 5.1 mph 7.0 mph 45 % 0.00 in
17:12 32.4 °F 12.9 °F 29.97 in NW 7.0 mph 11.5 mph 44 % 0.00 in
17:17 32.3 °F 13.3 °F 29.97 in WSW 5.2 mph 6.9 mph 45 % 0.00 in
17:23 32.2 °F 13.2 °F 29.98 in WNW 7.5 mph 11.5 mph 45 % 0.00 in
17:28 32.2 °F 13.2 °F 29.98 in SW 5.0 mph 10.4 mph 45 % 0.00 in
17:33 32.1 °F 13.1 °F 29.99 in WSW 3.3 mph 8.1 mph 45 % 0.00 in
17:48 32.0 °F 13.0 °F 30.00 in NW 5.4 mph 8.1 mph 45 % 0.00 in
17:53 31.9 °F 12.9 °F 30.00 in SW 4.5 mph 8.1 mph 45 % 0.00 in
17:58 31.9 °F 11.9 °F 30.01 in West 7.3 mph 12.0 mph 43 % 0.00 in
18:03 31.8 °F 12.8 °F 30.01 in WSW 2.3 mph 3.5 mph 45 % 0.00 in
18:08 31.7 °F 12.8 °F 30.01 in West 6.6 mph 6.6 mph 45 % 0.00 in
18:14 31.7 °F 12.8 °F 30.02 in WSW 4.6 mph 8.1 mph 45 % 0.00 in
18:19 31.6 °F 12.2 °F 30.02 in West 8.0 mph 14.0 mph 44 % 0.00 in
18:24 31.6 °F 12.7 °F 30.02 in WNW 6.5 mph 9.2 mph 45 % 0.00 in
18:29 31.5 °F 12.1 °F 30.02 in WNW 5.2 mph 10.0 mph 44 % 0.00 in
18:34 31.4 °F 12.5 °F 30.02 in West 4.4 mph 6.9 mph 45 % 0.00 in
18:44 31.3 °F 11.9 °F 30.03 in SW 5.0 mph 10.4 mph 44 % 0.00 in
18:54 31.2 °F 11.8 °F 30.03 in West 4.9 mph 10.4 mph 44 % 0.00 in
18:59 31.1 °F 12.7 °F 30.04 in West 6.0 mph 11.0 mph 46 % 0.00 in
19:05 31.0 °F 12.1 °F 30.04 in West 3.1 mph 5.0 mph 45 % 0.00 in
19:10 31.0 °F 11.6 °F 30.04 in SW 8.1 mph 11.5 mph 44 % 0.00 in
19:15 30.9 °F 12.0 °F 30.04 in WNW 4.7 mph 9.2 mph 45 % 0.00 in
19:20 30.9 °F 12.5 °F 30.04 in WSW 2.7 mph 5.8 mph 46 % 0.00 in
19:25 30.8 °F 12.4 °F 30.04 in WSW 3.9 mph 7.0 mph 46 % 0.00 in
19:35 30.7 °F 12.8 °F 30.04 in WNW 4.1 mph 5.8 mph 47 % 0.00 in
19:40 30.7 °F 12.8 °F 30.05 in WNW 5.5 mph 12.0 mph 47 % 0.00 in
19:45 30.7 °F 13.3 °F 30.05 in West 5.3 mph 10.4 mph 48 % 0.00 in
19:51 30.6 °F 12.7 °F 30.05 in WNW 5.7 mph 11.5 mph 47 % 0.00 in
19:56 30.5 °F 12.6 °F 30.06 in NW 5.5 mph 11.5 mph 47 % 0.00 in
20:01 30.4 °F 12.5 °F 30.06 in WNW 2.8 mph 9.2 mph 47 % 0.00 in
20:06 30.3 °F 12.9 °F 30.06 in West 2.8 mph 4.6 mph 48 % 0.00 in
20:11 30.3 °F 13.4 °F 30.06 in West 6.0 mph 9.0 mph 49 % 0.00 in
20:16 30.2 °F 13.3 °F 30.06 in West 6.0 mph 10.4 mph 49 % 0.00 in
20:21 30.1 °F 12.7 °F 30.06 in SSW 5.6 mph 9.0 mph 48 % 0.00 in
20:26 30.0 °F 12.7 °F 30.06 in WSW 7.2 mph 11.5 mph 48 % 0.00 in
20:31 29.9 °F 12.6 °F 30.06 in WNW 5.4 mph 11.5 mph 48 % 0.00 in
20:36 29.9 °F 13.0 °F 30.06 in WSW 4.3 mph 11.5 mph 49 % 0.00 in
20:42 29.8 °F 12.9 °F 30.06 in SW 7.6 mph 10.4 mph 49 % 0.00 in
20:47 29.7 °F 12.8 °F 30.07 in West 6.7 mph 13.8 mph 49 % 0.00 in
20:52 29.6 °F 12.8 °F 30.07 in NW 2.9 mph 8.1 mph 49 % 0.00 in
20:57 29.6 °F 13.2 °F 30.07 in SW 5.0 mph 11.5 mph 50 % 0.00 in
21:02 29.5 °F 13.1 °F 30.07 in West 6.2 mph 10.4 mph 50 % 0.00 in
21:07 29.4 °F 13.0 °F 30.07 in WNW 3.5 mph 8.1 mph 50 % 0.00 in
21:12 29.3 °F 12.9 °F 30.08 in SW 4.6 mph 9.2 mph 50 % 0.00 in
21:17 29.3 °F 12.9 °F 30.07 in WSW 3.8 mph 6.9 mph 50 % 0.00 in
21:22 29.2 °F 12.8 °F 30.07 in WSW 4.2 mph 9.2 mph 50 % 0.00 in
21:27 29.1 °F 13.2 °F 30.08 in SSW 4.1 mph 8.1 mph 51 % 0.00 in
21:33 29.0 °F 13.1 °F 30.08 in West 2.1 mph 8.1 mph 51 % 0.00 in
21:38 29.0 °F 12.7 °F 30.08 in West 5.6 mph 11.5 mph 50 % 0.00 in
21:43 28.9 °F 12.6 °F 30.08 in West 4.0 mph 6.9 mph 50 % 0.00 in
21:48 28.9 °F 12.6 °F 30.09 in SW 3.8 mph 5.8 mph 50 % 0.00 in
21:53 28.8 °F 12.0 °F 30.09 in WNW 7.1 mph 12.0 mph 49 % 0.00 in
21:58 28.7 °F 11.9 °F 30.09 in WSW 6.5 mph 9.2 mph 49 % 0.00 in
22:03 28.6 °F 11.8 °F 30.08 in WSW 5.3 mph 11.5 mph 49 % 0.00 in
22:08 28.5 °F 11.7 °F 30.09 in SW 6.0 mph 11.5 mph 49 % 0.00 in
22:13 28.5 °F 12.2 °F 30.09 in WNW 2.5 mph 6.9 mph 50 % 0.00 in
22:18 28.5 °F 12.2 °F 30.09 in WNW 2.8 mph 5.8 mph 50 % 0.00 in
22:24 28.4 °F 13.0 °F 30.09 in SSW 5.8 mph 7.0 mph 52 % 0.00 in
22:29 28.3 °F 12.9 °F 30.09 in West 4.4 mph 9.2 mph 52 % 0.00 in
22:39 28.2 °F 12.4 °F 30.09 in West 3.4 mph 12.7 mph 51 % 0.00 in
22:44 28.2 °F 12.4 °F 30.10 in West 3.6 mph 5.8 mph 51 % 0.00 in
22:49 28.1 °F 11.8 °F 30.09 in West 5.5 mph 10.0 mph 50 % 0.00 in
22:54 28.1 °F 11.8 °F 30.09 in West 4.1 mph 8.1 mph 50 % 0.00 in
22:59 28.0 °F 11.7 °F 30.09 in WSW 4.9 mph 10.0 mph 50 % 0.00 in
23:04 27.9 °F 12.1 °F 30.10 in WNW 3.5 mph 6.9 mph 51 % 0.00 in
23:09 27.9 °F 12.1 °F 30.09 in West 2.6 mph 5.8 mph 51 % 0.00 in
23:15 27.8 °F 12.4 °F 30.09 in WNW 5.3 mph 6.9 mph 52 % 0.00 in
23:20 27.8 °F 12.0 °F 30.09 in WSW 3.3 mph 5.8 mph 51 % 0.00 in
23:25 27.7 °F 11.9 °F 30.09 in WSW 3.2 mph 11.0 mph 51 % 0.00 in
23:30 27.6 °F 12.2 °F 30.09 in West 1.9 mph 6.0 mph 52 % 0.00 in
23:35 27.6 °F 11.8 °F 30.09 in WNW 2.6 mph 5.8 mph 51 % 0.00 in
23:40 27.5 °F 12.6 °F 30.09 in West 1.7 mph 5.0 mph 53 % 0.00 in
23:45 27.5 °F 12.6 °F 30.08 in West 0.2 mph 2.0 mph 53 % 0.00 in
23:50 27.4 °F 12.5 °F 30.08 in WNW 2.9 mph 4.6 mph 53 % 0.00 in
23:55 27.3 °F 12.0 °F 30.09 in West 0.7 mph 4.6 mph 52 % 0.00 in
Crab Meadow Weather
Compliments of Weather Underground - 2.75 mb

Script developed by  Jim McMurry - jmcmurry@mwt.net Adapted for the template by  Wim van der Kuil - Leuven-Template.eu

Lightning: The chances of being hit by lightning is 1:28,500.